Cloud_Cover
5 3 5 5 0 2 6 7 5 5 5 5 5 5 4 0 0 0 0 0 0 8 10 0 3 3 0 0 0 0 0 0 2 8 4 0 0 0 0 0 1 97 65 97 78 29 10 0 0
5 0 4 5 0 1 73 29 85 12 73 92 16 10 5 0 0 0 0 7 4 8 0 0 52 0 0 0 0 0 0 0 2 39 10 0 0 0 0 0 4 100 0 1 2 0 8 0 0
5 0 4 5 0 1 26 56 88 55 100 47 98 8 36 42 5 0 0 4 9 19 10 0 0 0 0 0 0 0 0 0 0 2 2 0 0 0 0 11 0 0 0 0 0 0 4 1 0
70 12 0 5 0 5 20 74 51 100 100 23 5 30 66 6 5 1 0 0 4 24 6 6 0 0 0 0 0 0 0 0 0 0 0 99 100 25 0 0 0 0 0 0 0 73 56 3 0
76 69 4 4 5 5 5 7 5 96 92 34 36 42 21 79 30 5 2 0 0 30 10 0 0 0 0 0 0 0 0 0 0 0 0 0 5 84 0 0 0 0 0 0 0 0 0 0 1
91 71 65 5 4 5 5 5 5 5 7 20 7 9 46 27 49 10 0 0 0 3 16 5 22 0 0 0 0 0 0 0 0 0 1 2 4 36 2 0 0 0 0 0 0 0 0 0 0
100 99 100 5 5 5 5 5 5 5 5 4 5 5 13 6 18 5 5 5 5 5 17 24 23 9 45 0 0 0 0 0 0 0 0 0 0 0 0 0 0 0 0 0 0 0 0 0 0
100 100 100 12 5 3 5 5 61 5 5 5 9 5 5 5 5 4 3 5 10 12 8 24 32 21 6 0 0 0 0 0 0 0 0 0 0 0 0 0 0 0 0 14 0 0 0 0 0
100 100 100 98 5 1 5 12 87 10 5 5 10 7 5 8 5 7 26 25 30 26 19 18 26 23 14 6 6 13 1 0 0 0 1 0 0 0 0 0 0 0 0 0 0 0 0 0 0
100 100 100 42 5 5 5 28 74 42 5 5 6 16 5 34 15 5 5 5 6 5 5 7 13 12 21 11 7 5 5 5 1 0 3 70 4 0 0 0 0 0 0 0 0 0 0 0 0
100 100 100 44 15 33 8 98 100 98 21 5 35 60 49 24 37 5 5 5 5 5 5 5 5 3 14 14 12 18 5 5 7 17 5 5 6 7 18 17 0 0 0 8 46 94 77 85 62
100 100 100 99 78 5 44 98 100 100 100 20 9 19 90 84 43 5 5 5 5 5 5 5 5 5 5 7 11 27 32 99 100 100 88 50 47 66 100 100 100 100 100 100 100 100 100 100 100
100 100 100 100 100 56 50 96 100 100 100 100 61 14 8 47 80 55 41 51 28 5 5 8 27 7 12 55 100 100 100 100 100 100 100 100 100 100 100 100 100 100 100 100 100 100 100 100 100
100 100 100 100 100 100 100 100 100 100 75 53 100 100 75 6 56 47 13 25 5 5 5 16 6 24 93 100 84 23 42 63 100 100 100 100 100 100 100 100 100 100 100 100 100 100 100 100 100
99 100 100 100 100 100 100 98 100 100 84 5 82 100 100 100 98 41 43 39 7 5 5 5 35 97 98 82 75 17 42 98 100 100 100 100 100 100 99 100 100 100 100 100 100 100 100 100 52
100 75 100 100 100 100 100 100 100 100 100 97 46 100 100 100 100 100 96 57 41 58 36 5 5 6 8 5 11 47 100 100 100 100 100 98 33 27 22 8 35 61 10 19 16 19 2 65 77
100 100 100 100 100 100 75 99 100 100 100 100 95 91 100 100 85 98 100 100 62 91 100 100 99 95 71 55 98 100 100 100 99 100 100 100 100 100 75 82 75 40 44 42 100 100 84 96 100
100 100 100 100 100 100 95 100 100 48 99 26 100 100 84 87 100 100 100 100 100 100 100 100 100 100 100 100 100 100 100 99 99 83 100 100 100 100 100 100 79 82 75 66 51 89 80 100 63
100 100 100 100 100 94 95 100 100 38 100 100 98 100 100 95 100 100 100 100 100 100 100 100 100 100 100 63 59 84 55 82 96 100 100 100 100 100 61 5 7 93 67 49 92 78 91 69 47
100 100 100 100 100 68 37 100 78 77 91 58 56 100 53 38 93 100 100 100 17 8 16 54 100 100 92 74 68 88 100 100 100 100 100 99 100 100 96 100 98 73 100 98 80 4 6 48 21
71 100 100 100 100 100 51 100 41 5 22 92 78 21 76 86 100 100 100 100 100 100 52 37 78 78 81 92 100 100 100 98 64 82 95 36 100 100 77 42 96 69 69 5 5 5 12 55 94
56 44 100 72 70 72 97 100 100 100 98 66 74 94 69 96 100 97 100 98 100 93 98 100 100 95 100 100 100 80 83 71 49 41 88 65 96 60 94 52 6 39 89 89 93 53 93 55 19
25 59 21 11 5 5 14 16 100 100 100 100 96 95 100 97 100 96 77 61 88 78 90 100 100 100 100 58 13 61 27 74 99 95 100 100 72 75 91 89 100 100 100 100 25 25 5 5 5
100 58 95 100 90 32 100 13 90 99 20 5 15 84 100 100 100 100 100 66 25 27 94 98 100 73 35 59 33 69 97 98 65 52 5 5 5 23 88 84 98 87 6 5 5 27 48 70 25
100 100 100 80 34 5 76 38 5 100 99 64 13 5 34 23 5 24 91 33 21 59 100 75 16 45 78 97 100 100 98 91 76 79 97 100 100 100 88 68 6 58 28 5 39 52 87 92 44
100 80 9 29 100 98 93 100 100 98 97 100 100 100 96 24 28 25 5 6 24 29 23 56 74 98 100 100 100 100 100 48 35 41 71 78 7 5 6 5 5 5 5 50 98 99 89 100 100
100 100 100 100 100 100 95 100 100 100 100 100 100 100 70 72 18 7 8 20 7 13 20 12 51 100 79 48 65 32 6 5 5 5 5 5 15 29 6 38 33 99 100 64 100 100 100 99 43
100 100 100 100 100 100 100 100 100 100 100 100 100 100 100 100 100 100 100 100 100 100 100 100 100 99 93 100 88 98 80 41 11 11 32 52 31 69 84 79 100 100 68 99 100 99 85 70 10
100 100 100 82 34 5 50 100 88 100 100 90 79 100 100 100 100 100 100 100 70 78 80 38 20 58 92 93 84 47 56 66 73 68 77 96 95 81 88 100 100 100 100 100 59 65 7 5 9
100 100 100 100 100 90 7 10 14 23 30 55 5 5 5 6 25 25 96 98 72 63 57 91 66 87 88 22 5 10 56 76 98 97 100 79 99 100 100 100 100 100 100 98 92 91 59 99 100